Location: Churchill Northern Studies Centre
(58.7378°N, 93.8201°W)
Time: 13:54:50
(UTC-05:00)

Envisat - Pass Details

Date: 08 October 2017
Orbit: 764 x 766 km, 98.2° (Epoch: 23 October)

Event Time Altitude Azimuth Distance (km) Brightness Sun altitude
Exits shadow 21:21:38 12° 191° (S) 2,160 5.2 -22.8°
Maximum altitude 21:26:06 45° 262° (W) 1,048 4.0 -23.3°
Drops below altitude 10° 21:31:00 10° 335° (NNW) 2,317 6.2 -23.9°
Sets 21:33:25 0° 342° (NNW) 3,248 7.0 -24.2°
